Tindouf, Algeria

7:57 PM CET en Diciembre 13, 2018 (GMT +0100)
Tindouf

Tiempo Historia de DAOF - Agosto, 2018

Change the Weather History Date:

Sábado, Agosto 11, 2018

  Actual Average Record
Temperature  
Temperatura media 93 ° F -  
Temperatura máxima 109 ° F - - ()
Temperatura mínima 77 ° F - - ()
Cooling Degree Days 28    
Growing Degree Days 43 (Base 50)    
Moisture  
Punto de rocío 58 ° F    
Average Humidity 34    
Maximum Humidity 57    
Minimum Humidity 18    
Precipitación  
Precipitación 0.00 pul - - ()
Presión al nivel del mar  
Presión al nivel del mar 29.96 pul    
Viento  
Velocidad del viento 21 mph ()    
Velocidad máxima del viento 32 mph    
Max Gust Speed -    
Visibilidad 2.3 Millas    
Eventos Tormenta    
T = Trace of Precipitation, MM = Missing Value Source: Averaged Metar Reports

Daily Weather History Graph

Daily Weather History Graph

Search for Another Location

Airport or City:

Astronomía

Aug. 11, 2018 Salida Puesta
Hora real 7:00 AM CET 8:14 PM CET
Crepúsculo civil 6:36 AM CET 8:38 PM CET
Crepúsculo náutico 6:06 AM CET 9:08 PM CET
Crepúsculo astronómico 5:36 AM CET 9:38 PM CET
Luna 6:53 AM CET (8/11) 8:33 PM CET (8/11)
Horas de luz 14h 02m
Horas de luz
13h 13m
Luna nueva, 0% of the Moon is Illuminated
Ago 11
Luna nueva
Ago 18
Cuarto creciente
Ago 26
Luna llena
Sep 3
Cuarto menguante
Sep 9
Nueva

Hourly Weather History & Observations

Hora (CET) Temp. Índice de calor Punto de rocío Humedad Presión Visibilidad Wind Dir Velocidad del viento Velocidad de ráfagas Precip Eventos Condiciones
12:00 AM 91.4 ° F 89.1 ° F 53.6 ° F 28% 29.95 pul 1.6 mi ESE 29.9 mph - N/A   Viento de arena
1:00 AM 90 ° F - 54 ° F 20% 29.83 pul 2 mi Este 23.0 mph - -   Viento de arena
1:00 AM 89.6 ° F 87.3 ° F 53.6 ° F 29% 29.95 pul 2.5 mi Este 23.0 mph - N/A   Viento de arena
2:00 AM 89.6 ° F 87.7 ° F 55.4 ° F 31% 29.92 pul 3.1 mi ENE 25.3 mph - N/A   Viento de arena
3:00 AM 84.2 ° F 83.8 ° F 59.0 ° F 42% 29.95 pul 1.9 mi Este 24.2 mph - N/A   Viento de arena
4:00 AM 83 ° F - 59 ° F 34% 29.86 pul 1 mi Este 32.2 mph - -   Viento de arena
4:00 AM 82.4 ° F 82.5 ° F 59.0 ° F 45% 29.98 pul 1.2 mi Este 32.2 mph - N/A   Viento de arena
5:00 AM 78.8 ° F - 60.8 ° F 54% 30.01 pul 1.2 mi Este 27.6 mph - N/A   Viento de arena
6:00 AM 80.6 ° F 81.5 ° F 60.8 ° F 51% 30.01 pul 1.6 mi Este 28.8 mph - N/A   Viento de arena
7:00 AM 80 ° F - 60 ° F 40% 29.92 pul 2 mi Este 27.6 mph - -   Viento de arena
7:00 AM 80.6 ° F 81.5 ° F 60.8 ° F 51% 30.01 pul 2.2 mi Este 27.6 mph - N/A   Viento de arena
8:00 AM 78.8 ° F - 60.8 ° F 54% 30.04 pul 2.5 mi ENE 25.3 mph - N/A Tormenta Viento de arena
9:00 AM 80.6 ° F 81.5 ° F 60.8 ° F 51% 30.06 pul 2.5 mi ENE 20.7 mph - N/A Tormenta Viento de arena
10:00 AM 78 ° F - 62 ° F 47% 29.98 pul 2 mi ENE 26.5 mph - - Tormenta Tormenta
10:00 AM 77.0 ° F - 60.8 ° F 57% 30.04 pul 2.5 mi ENE 26.5 mph - N/A Tormenta Nubes bajas de arena
11:00 AM 82.4 ° F 82.5 ° F 59.0 ° F 45% 30.01 pul 2.5 mi NE 19.6 mph - N/A Tormenta Nubes bajas de arena
12:00 PM 93.2 ° F 91.3 ° F 55.4 ° F 28% 30.01 pul 2.5 mi ENE 23.0 mph - N/A Tormenta Nubes bajas de arena
12:10 PM 93.2 ° F 91.3 ° F 55.4 ° F 28% 30.01 pul 2.5 mi ENE 23.0 mph - N/A   Nubes bajas de arena
1:00 PM 94 ° F - 55 ° F 18% 29.90 pul 2 mi ENE 18.4 mph - - Tormenta Tormenta débil
1:00 PM 93.2 ° F 91.3 ° F 55.4 ° F 28% 30.01 pul 2.5 mi ENE 18.4 mph - N/A   Nubes bajas de arena
2:00 PM 91.4 ° F 91.4 ° F 60.8 ° F 36% 30.01 pul 0.9 mi Este 20.7 mph - N/A   Viento de arena
3:00 PM 93.2 ° F 93.3 ° F 60.8 ° F 34% 29.98 pul 0.9 mi ENE 18.4 mph - N/A   Viento de arena
4:00 PM 95 ° F - 58 ° F 20% 29.87 pul 1 mi ENE 20.7 mph - -   Viento de arena
4:00 PM 95.0 ° F 94.4 ° F 59.0 ° F 30% 29.98 pul 0.9 mi ENE 20.7 mph - N/A   Viento de arena
5:00 PM 96.8 ° F 96.2 ° F 59.0 ° F 28% 29.95 pul 1.9 mi ENE 18.4 mph - N/A   Nubes bajas de arena
6:00 PM 96.8 ° F 95.8 ° F 57.2 ° F 27% 29.92 pul 3.1 mi ENE 16.1 mph - N/A   Nubes dispersas
7:00 PM 96 ° F - 58 ° F 19% 29.82 pul 3 mi Este 16.1 mph - -   Parcialmente nublado
7:00 PM 95.0 ° F 93.7 ° F 57.2 ° F 28% 29.92 pul 3.1 mi Este 16.1 mph - N/A   Nubes dispersas
8:00 PM 95.0 ° F 93.7 ° F 57.2 ° F 28% 29.92 pul 3.1 mi ENE 16.1 mph - N/A   Nubes dispersas
9:00 PM 93.2 ° F 91.3 ° F 55.4 ° F 28% 29.95 pul 3.7 mi ENE 16.1 mph - N/A   Nubes dispersas
10:00 PM 92 ° F - 55 ° F 19% 29.89 pul 4 mi ENE 9.2 mph - -   Despejado
10:00 PM 91.4 ° F 89.4 ° F 55.4 ° F 29% 29.98 pul 3.7 mi ENE 9.2 mph - N/A   Desconocido
11:00 PM 91.4 ° F 89.1 ° F 53.6 ° F 28% 29.98 pul 3.7 mi NE 9.2 mph - N/A   Nubes dispersas